AXB2983 VOTV-VOBL

Flight info

Callsign AXB2983
Flight time N/A
Altitude 33000
Route UGABA DCT RUBOX
Aircraft A21N/M-SDE3FGHIRWY/LB1

Departure

Time N/A
Airport Thiruvananthapuram International Airport (VOTV)

Arrival

Time 2026-05-07 09:00
Airport Kempegowda International Airport Bengaluru (VOBL)
Time Latitude Longitude Altitude Speed Heading
2026-05-07 08:34 11.08497 77.17482 32851 ft 438 kts
2026-05-07 08:34 11.11449 77.17803 32851 ft 438 kts
2026-05-07 08:35 11.17464 77.18456 32852 ft 438 kts
2026-05-07 08:35 11.23515 77.19115 32851 ft 437 kts
2026-05-07 08:36 11.29719 77.19791 32851 ft 437 kts
2026-05-07 08:36 11.36201 77.20498 32851 ft 438 kts
2026-05-07 08:37 11.42574 77.21194 32851 ft 438 kts
2026-05-07 08:37 11.48836 77.21878 32851 ft 438 kts
2026-05-07 08:38 11.54982 77.22549 32851 ft 438 kts
2026-05-07 08:38 11.61138 77.23222 32851 ft 437 kts
2026-05-07 08:39 11.67544 77.23923 32851 ft 437 kts
2026-05-07 08:39 11.74009 77.24631 32854 ft 438 kts
2026-05-07 08:40 11.80362 77.25326 32866 ft 438 kts
2026-05-07 08:40 11.87066 77.26060 32883 ft 438 kts
2026-05-07 08:41 11.93724 77.26792 32905 ft 446 kts
2026-05-07 08:41 12.00170 77.27497 32446 ft 443 kts
2026-05-07 08:42 12.03531 77.27866 31550 ft 446 kts
2026-05-07 08:42 12.06745 77.28220 30589 ft 451 kts
2026-05-07 08:42 12.09913 77.28570 29692 ft 453 kts
2026-05-07 08:42 12.13328 77.29115 28734 ft 453 kts 13°
2026-05-07 08:43 12.16474 77.29921 27812 ft 453 kts 18°
2026-05-07 08:43 12.19441 77.30972 26885 ft 454 kts 22°
2026-05-07 08:43 12.22370 77.32163 25933 ft 455 kts 23°
2026-05-07 08:43 12.25314 77.33392 24934 ft 458 kts 23°
2026-05-07 08:44 12.28246 77.34620 23901 ft 460 kts 23°
2026-05-07 08:44 12.31211 77.35860 22901 ft 461 kts 23°
2026-05-07 08:44 12.34131 77.37079 22127 ft 457 kts 23°
2026-05-07 08:44 12.37056 77.38297 21456 ft 450 kts 23°
2026-05-07 08:45 12.39913 77.39486 20841 ft 443 kts 22°
2026-05-07 08:45 12.42823 77.40698 20225 ft 436 kts 22°
2026-05-07 08:45 12.45623 77.41863 19633 ft 429 kts 22°
2026-05-07 08:45 12.48425 77.43030 19040 ft 423 kts 22°
2026-05-07 08:46 12.51131 77.44156 18465 ft 417 kts 22°
2026-05-07 08:46 12.53846 77.45287 17882 ft 412 kts 22°
2026-05-07 08:46 12.56476 77.46383 17314 ft 407 kts 22°
2026-05-07 08:46 12.59104 77.47478 16741 ft 403 kts 22°
2026-05-07 08:47 12.61716 77.48566 16169 ft 398 kts 22°
2026-05-07 08:47 12.64272 77.49631 15612 ft 394 kts 22°
2026-05-07 08:47 12.66823 77.50695 15053 ft 390 kts 22°
2026-05-07 08:47 12.69350 77.51749 14502 ft 386 kts 22°
2026-05-07 08:48 12.71848 77.52791 13954 ft 383 kts 22°
2026-05-07 08:48 12.74320 77.53822 13409 ft 380 kts 22°
2026-05-07 08:48 12.76773 77.54845 12867 ft 376 kts 22°
2026-05-07 08:48 12.79229 77.55871 12319 ft 373 kts 22°
2026-05-07 08:49 12.81635 77.56875 11786 ft 370 kts 22°
2026-05-07 08:49 12.84010 77.57866 11444 ft 360 kts 22°
2026-05-07 08:49 12.86308 77.58825 11243 ft 346 kts 22°
2026-05-07 08:49 12.88535 77.59570 11004 ft 335 kts
2026-05-07 08:50 12.90155 77.59611 10840 ft 328 kts 354°
2026-05-07 08:50 12.91313 77.59365 10709 ft 324 kts 343°
2026-05-07 08:50 12.93161 77.58528 10525 ft 315 kts 334°
2026-05-07 08:50 12.95203 77.57426 10295 ft 305 kts 333°
2026-05-07 08:51 12.97104 77.56388 10136 ft 293 kts 333°
2026-05-07 08:51 12.99005 77.55362 10021 ft 281 kts 334°
2026-05-07 08:51 13.00683 77.54466 9755 ft 279 kts 334°
2026-05-07 08:51 13.02480 77.53515 9354 ft 278 kts 334°
2026-05-07 08:52 13.04229 77.52593 8991 ft 278 kts 334°
2026-05-07 08:52 13.05989 77.51665 8634 ft 276 kts 334°
2026-05-07 08:52 13.07772 77.50726 8276 ft 275 kts 334°
2026-05-07 08:52 13.09516 77.49809 7928 ft 274 kts 334°
2026-05-07 08:53 13.11229 77.48907 7586 ft 272 kts 334°
2026-05-07 08:53 13.12914 77.48020 7250 ft 271 kts 334°
2026-05-07 08:53 13.14611 77.47127 6913 ft 270 kts 334°
2026-05-07 08:53 13.16313 77.46230 6759 ft 253 kts 334°
2026-05-07 08:54 13.17910 77.45634 6664 ft 231 kts 359°
2026-05-07 08:54 13.19463 77.45989 6599 ft 225 kts 33°
2026-05-07 08:54 13.20528 77.47180 6614 ft 205 kts 66°
2026-05-07 08:54 13.20853 77.48554 6489 ft 189 kts 85°
2026-05-07 08:55 13.20901 77.49852 6380 ft 172 kts 90°
2026-05-07 08:55 13.20889 77.51087 6279 ft 161 kts 91°
2026-05-07 08:55 13.20869 77.52284 6096 ft 161 kts 91°
2026-05-07 08:55 13.20853 77.53432 5878 ft 159 kts 91°
2026-05-07 08:56 13.20840 77.54575 5664 ft 159 kts 91°
2026-05-07 08:56 13.20829 77.55740 5445 ft 159 kts 91°
2026-05-07 08:56 13.20819 77.56906 5255 ft 157 kts 91°
2026-05-07 08:56 13.20810 77.58051 5039 ft 156 kts 91°
2026-05-07 08:57 13.20800 77.59207 4813 ft 156 kts 91°
2026-05-07 08:57 13.20791 77.60355 4592 ft 155 kts 91°
2026-05-07 08:57 13.20781 77.61491 4377 ft 154 kts 91°
2026-05-07 08:57 13.20771 77.62620 4168 ft 154 kts 91°
2026-05-07 08:58 13.20762 77.63722 3966 ft 153 kts 91°
2026-05-07 08:58 13.20752 77.64831 3763 ft 153 kts 91°
2026-05-07 08:58 13.20742 77.65944 3558 ft 152 kts 92°
2026-05-07 08:58 13.20734 77.67032 3355 ft 152 kts 92°
2026-05-07 08:59 13.20717 77.68121 3155 ft 151 kts 92°
2026-05-07 08:59 13.20710 77.69235 3020 ft 148 kts 92°
2026-05-07 08:59 13.20702 77.70236 2991 ft 108 kts 91°
2026-05-07 08:59 13.20692 77.70823 2965 ft 53 kts 100°
2026-05-07 09:00 13.20615 77.71026 2952 ft 17 kts 123°
2026-05-07 09:00 13.20571 77.71100 2949 ft 12 kts 121°
2026-05-07 09:00 13.20522 77.71166 2948 ft 5 kts 150°
2026-05-07 09:00 13.20491 77.71175 2949 ft 3 kts 174°
2026-05-07 09:01 13.20481 77.71176 2949 ft 0 kts 179°
2026-05-07 09:01 13.20480 77.71176 2949 ft 0 kts 179°
2026-05-07 09:01 13.20455 77.71175 2951 ft 7 kts 181°
2026-05-07 09:01 13.20379 77.71175 2955 ft 13 kts 180°
2026-05-07 09:02 13.20286 77.71166 2960 ft 11 kts 205°
2026-05-07 09:02 13.20260 77.71107 2963 ft 8 kts 268°
2026-05-07 09:02 13.20259 77.71059 2965 ft 6 kts 270°
2026-05-07 09:02 13.20256 77.71001 2966 ft 7 kts 237°
2026-05-07 09:03 13.20216 77.70972 2968 ft 5 kts 222°
2026-05-07 09:03 13.20191 77.70956 2969 ft 3 kts 183°
2026-05-07 09:03 13.20174 77.70956 2970 ft 0 kts 179°